Location: Newark
(52.2583°N, 7.1190°W)
Time: 01:53:21
(UTC+00:00)

S-56A Canister/Altair - Pass Details

Date: 19 November 2019
Orbit: 633 x 2500 km, 38.9° (Epoch: 08 December)

Event Time Altitude Azimuth Distance (km) Brightness Sun altitude
Rises 19:27:30 0° 248° (WSW) 4,664 12.6 -26.5°
Reaches altitude 10° 19:31:34 10° 237° (WSW) 3,338 11.4 -27.1°
Maximum altitude 19:37:48 26° 186° (S) 1,899 9.5 -28.1°
Enters shadow 19:38:39 25° 173° (S) 1,871 9.3 -28.2°
